Regional Weather Roundup
Issued by NWS

Home | Current Version | Previous Version | Graphics & Text | Print | Product List | Glossary On
Versions: 1 2 3 4 5 6 7 8 9 10 11 12 13 14 15 16 17 18 19 20 21 22 23 24 25 26 27 28 29 30 31 32 33 34 35 36 37 38 39 40 41 42 43 44 45 46 47 48 49 50
000
ASUS43 KOAX 310402
RWRNE

WEATHER ROUNDUP FOR NEBRASKA
NATIONAL WEATHER SERVICE OMAHA NE
1100 PM CDT SAT JUL 30 2016

NOTES: SATELLITE DATA IS BEING USED TO AUGMENT CLOUD COVER ABOVE
       12000 FEET.
       "FAIR" INDICATES FEW OR NO CLOUDS BELOW 12,000 FEET WITH NO
       SIGNIFICANT WEATHER AND/OR OBSTRUCTIONS TO VISIBILITY.

  * THESE STATIONS DO NOT REPORT WEATHER SUCH AS RAIN...SNOW OR FOG.

NEZ001>004-019>022-054>056-310500-
NEBRASKA PANHANDLE

CITY           SKY/WX    TMP DP  RH WIND       PRES   REMARKS
SCOTTSBLUFF    CLOUDY    73  62  68 E6        29.92R
ALLIANCE       CLOUDY    70  62  76 SE10      29.91F
CHADRON        CLOUDY    81  58  45 SE13G24   29.84R
KIMBALL        CLOUDY    71  63  77 SW5       30.03R THUNDER
SIDNEY         CLEAR     71  61  70 SE8       29.98R
$$

NEZ057>060-069>072-079>082-310500-
SOUTHWEST NEBRASKA

CITY           SKY/WX    TMP DP  RH WIND       PRES   REMARKS
NORTH PLATTE   CLEAR     71  68  90 SE8       29.93R
IMPERIAL       CLEAR     75  63  66 SE12      29.94R
LEXINGTON      CLEAR     74  68  82 SE12      29.94S
MCCOOK         CLEAR     76  65  68 E12       29.93R
OGALLALA       CLEAR     74  63  68 E6        29.93S
$$

NEZ005>010-023>029-035>040-094-310500-
NORTH CENTRAL NEBRASKA

CITY           SKY/WX    TMP DP  RH WIND       PRES   REMARKS
VALENTINE      PTCLDY    76  67  73 S17       29.86F
AINSWORTH      CLOUDY    75  69  82 S14       29.89F
BROKEN BOW     CLOUDY    72  70  93 SE9       29.95R
O`NEILL        CLOUDY    73  67  83 SE10      29.94F
ORD            CLOUDY    73  68  84 SE10      29.93S
THEDFORD       CLOUDY    74  68  81 SE12      29.92F
$$

NEZ041-046>049-061>064-073>077-083>087-310500-
SOUTH CENTRAL NEBRASKA

CITY           SKY/WX    TMP DP  RH WIND       PRES   REMARKS
GRAND ISLAND   CLEAR     72  66  81 SE9       29.96R
AURORA         CLEAR     70  67  92 SE8       29.96S
HASTINGS       CLEAR     72  65  78 SE13      29.96S
HEBRON         MOCLDY    72  68  88 SE3       29.96S
HOLDREGE       CLEAR     72  67  87 SE9       29.95S
KEARNEY *      CLEAR     72  66  83 SE9       29.95F
YORK           CLEAR     72  66  83 SE9       29.96F
$$

NEZ011>018-030>034-042>045-310500-
NORTHEAST NEBRASKA

CITY           SKY/WX    TMP DP  RH WIND       PRES   REMARKS
NORFOLK        CLOUDY    70  64  81 SE9       29.96R
ALBION         CLOUDY    70  66  88 SE7       29.96S
BLAIR          MOCLDY    71  65  82 SE5       29.98S
FREMONT        PTCLDY    72  65  79 SE6       29.98S
TEKAMAH        CLEAR     68  64  87 S6        29.96S
WAYNE          CLEAR     66  64  94 CALM      29.97S
$$

NEZ050>053-065>068-078-088>093-310500-
SOUTHEAST NEBRASKA

CITY           SKY/WX    TMP DP  RH WIND       PRES   REMARKS
LINCOLN        CLEAR     73  67  81 SE7       29.97S
OMAHA EPPLEY   PTCLDY    73  65  75 SE7       29.97R
BEATRICE       CLEAR     71  68  90 SE5       29.97S
FALLS CITY     CLEAR     71  68  90 SE5       29.98R
NEBRASKA CITY  CLEAR     69  69 100 SE5       29.99S
PLATTSMOUTH    CLEAR     69  67  92 SE6       29.99R
$$

NEZ044-045-051>053-067-310500-
OMAHA AREA

CITY           SKY/WX    TMP DP  RH WIND       PRES   REMARKS
OMAHA EPPLEY   PTCLDY    73  65  75 SE7       29.97R
BLAIR          MOCLDY    71  65  82 SE5       29.98S
FREMONT        PTCLDY    72  65  79 SE6       29.98S
MILLARD        CLEAR     72  66  83 SE5       29.98R
OFFUTT AFB     CLEAR     68  66  93 E5        29.97R
PLATTSMOUTH    CLEAR     69  67  92 SE6       29.99R
WAHOO          FAIR      68  66  91 SE5       29.97F
$$




USA.gov is the U.S. government's official web portal to all federal, state and local government web resources and services.